Regional Weather Roundup
Issued by NWS

Home | Current Version | Previous Version | Text Only | Print | Product List | Glossary On
Versions: 1 2 3 4 5 6 7 8 9 10 11 12 13 14 15 16 17 18 19 20 21 22 23 24 25 26 27 28 29 30 31 32 33 34 35 36 37 38 39 40 41 42 43 44 45 46 47 48 49 50
000
ASUS44 KFWD 220515
RWRTX
NORTH TEXAS HOURLY WEATHER ROUNDUP
NATIONAL WEATHER SERVICE FORT WORTH TX
1200 AM CDT MON SEP 22 2014

NOTE: "FAIR" INDICATES FEW OR NO CLOUDS BELOW 12,000 FEET WITH NO
SIGNIFICANT WEATHER AND/OR OBSTRUCTIONS TO VISIBILITY.

TXZ118-119-220600-
DALLAS/FORT WORTH METROPLEX

CITY           SKY/WX    TMP DP  RH WIND       PRES   REMARKS
DFW AIRPORT    MOCLDY    81  67  62 NE8       30.10R
DALLAS LOVE    PTCLDY    81  69  67 NE12      30.09R
FTW MEACHAM    PTCLDY    80  68  66 NE9       30.09S
DAL-EXECUTIVE  MOCLDY    84  64  50 NE7       30.09R
FTW-ALLIANCE   MOCLDY    78  68  71 N8        30.11R
FTW-NAS-JRB    CLEAR     84  66  54 NE12      30.13S
FTW-SPINKS     CLEAR     76  63  63 CALM      30.11R
ARLINGTON      CLEAR     77  64  64 N5        30.09S
GRAND PRAIRIE  CLEAR     81  62  52 N8        30.10S
ADDISON        CLEAR     81  67  64 NE13G18   30.12S
MESQUITE       MOCLDY    80  64  59 N5        30.09R
LANCASTER      MOCLDY    77  63  61 CALM      30.09S
$$

TXZ091>094-102>105-117-120-121-131>134-220600-
NORTH CENTRAL TEXAS

CITY           SKY/WX    TMP DP  RH WIND       PRES   REMARKS
SHRMAN/DENISON PTCLDY    74  63  67 NE8       30.15R
GAINESVILLE    MOCLDY    74  63  68 N8        30.17R
BOWIE          MOCLDY    75  69  81 NE8       30.15S
BRIDGEPORT     PTCLDY    76  63  63 NE5       30.14S
DECATUR        PTCLDY    74  65  75 NE8       30.14R
DENTON         PTCLDY    77  69  76 NE10      30.11S
MCKINNEY       MOCLDY    79  67  66 NE13      30.11R
GREENVILLE     PTCLDY    79  68  69 N6        30.11S
ROCKWALL       PTCLDY    79  71  76 NE10      30.10R
TERRELL        PTCLDY    81  68  64 NE12      30.10R
WAXAHACHIE     PTCLDY    75  60  58 CALM      30.11R
CLEBURNE       PTCLDY    75  64  69 CALM      30.11S
GRANBURY       MOCLDY    74  64  71 NW3       30.11S
$$

TXZ083>090-098>101-113>116-127>130-139>142-154-155-220600-
WESTERN NORTH TEXAS

CITY           SKY/WX    TMP DP  RH WIND       PRES   REMARKS
WICHITA FALLS  MOCLDY    73  60  63 NE12      30.16S
WF-KICKAPOO    MOCLDY    73  64  72 NE10G16   30.17R
VERNON         CLOUDY    73  65  76 E13G20    30.19S
ABILENE        MOCLDY    75  67  76 SE3       30.16S
ABILENE-DYESS  MOCLDY    73  62  68 CALM      30.15S
BRECKENRIDGE   CLOUDY    78  63  60 E5        30.13S
GRAHAM         MOCLDY    77  66  69 NE6       30.12S
MINERAL WELLS  PTCLDY    74  60  61 CALM      30.11R
STEPHENVILLE   MOCLDY    74  61  62 CALM      30.15S
COMANCHE       MOCLDY    76  63  63 SW3       30.14S
BROWNWOOD      MOCLDY    73  68  83 CALM      30.14S
COLEMAN        MOCLDY    75  65  72 CALM      30.16R
BRADY          CLEAR     73  64  73 CALM      30.15S
$$

TXZ143>147-156>162-174-175-220600-
CENTRAL TEXAS

CITY           SKY/WX    TMP DP  RH WIND       PRES   REMARKS
WACO           MOCLDY    72  67  84 W3        30.08S
WACO-MCGREGOR  PTCLDY    75  61  60 W3        30.09S
HILLSBORO      PTCLDY    76  60  57 CALM      30.09S
CORSICANA      PTCLDY    78  63  59 CALM      30.08S
MEXIA          MOCLDY    75  65  72 CALM      30.07S
HEARNE         MOCLDY    72  70  92 CALM      30.06S
CAMERON        PTCLDY    74  67  79 CALM      30.06S
TEMPLE         PTCLDY    73  63  68 NW5       30.08S
KILLEEN        CLEAR     75  64  69 CALM      30.10R
KILLEEN-SKYLRK PTCLDY    72  63  73 CALM      30.09S
FORT HOOD      PTCLDY    75  66  73 CALM      30.10R
GATESVILLE     PTCLDY    73  64  73 CALM      30.12S
HAMILTON       PTCLDY    76  61  60 SW3       30.13S
LAMPASAS       PTCLDY    73  67  82 CALM      30.11S
$$

TXZ095>097-106>112-122>126-135>138-148>153-164>167-220600-
EAST TEXAS

CITY           SKY/WX    TMP DP  RH WIND       PRES   REMARKS
PARIS          PTCLDY    73  64  73 N5        30.12S
SULPHUR SPRNGS PTCLDY    77  70  78 N8        30.13R
MOUNT PLEASANT MOCLDY    77  69  78 N3        30.10S
GILMER         PTCLDY    79  72  78 N3        30.09S
MINEOLA        PTCLDY    77  70  78 N3        30.09S
TYLER          CLEAR     76  68  76 CALM      30.07S
LONGVIEW       PTCLDY    77  68  73 CALM      30.05F
MARSHALL       PTCLDY    77  70  80 N3        30.08R
ATHENS         PTCLDY    72  66  83 CALM      30.06S
PALESTINE      PTCLDY    72  69  89 CALM      30.07S
JACKSONVILLE   PTCLDY    80  66  61 N3        30.09S
HENDERSON      CLEAR     73  70  91 CALM      30.07S
NACOGDOCHES    CLEAR     73  70  88 CALM      30.05S
LUFKIN         PTCLDY    76  71  85 CALM      30.04F
$$

SUPPLEMENTAL OBSERVATIONS (CENTRAL)

CITY           SKY/WX    TMP DP  RH WIND       PRES   REMARKS
LAKE TEXOMA      N/A     73  63  68 NE2         N/A
CADDO GRASSLND   N/A     73  68  83 N2          N/A
PAT MAYSE LAKE   N/A     73  68  83 NW1         N/A
ATHENS           N/A     73  66  78 CALM        N/A
LAKE LIMESTONE   N/A     72  66  83 CALM        N/A
MCGREGOR         N/A     72  66  83 CALM        N/A
$$

SUPPLEMENTAL OBSERVATIONS (WEST)

CITY           SKY/WX    TMP DP  RH WIND       PRES   REMARKS
LBJ GRASSLAND    N/A     75  64  69 N6          N/A
COMANCHE         N/A     75  61  60 SW3         N/A
HAMBY            N/A     72  64  78 SE2         N/A
IVIE RESERVOIR   N/A     73  64  73 SE2         N/A
COLORADO BEND    N/A     73  63  68 S2          N/A
$$

SUPPLEMENTAL OBSERVATIONS (EAST)

CITY           SKY/WX    TMP DP  RH WIND       PRES   REMARKS
CLARKSVILLE      N/A     73  68  83 VRB3        N/A
TEXARKANA        N/A     79  70  73 N5          N/A
LINDEN           N/A     75  70  83 CALM        N/A
CADDO LAKE       N/A     72  70  94 NE1         N/A
GILMER           N/A     77  68  73 N3          N/A
HENDERSON        N/A     73  68  83 N2          N/A
LUFKIN           N/A     73  70  88 MISG        N/A
N SABINE NF      N/A     72  68  88 MISG        N/A
$$

SUPPLEMENTAL OBSERVATIONS ARE A COLLECTION OF AUTOMATED INSTRUMENTS
THAT ARE MAINTAINED BY A VARIETY OF FEDERAL AND STATE AGENCIES.
CERTAIN ELEMENTS...SUCH AS HUMIDITY VALUES AND SUSTAINED WIND
SPEEDS...MAY BE APPROXIMATED.



USA.gov is the U.S. government's official web portal to all federal, state and local government web resources and services.